Terminal Aerodrome Forecast
Issued by NWS

Home | Current Version | Previous Version | Text Only | Print | Product List | Glossary On
Versions: 1 2 3 4 5 6 7 8 9 10 11 12 13 14 15 16 17 18 19 20 21
583
FTUS41 KOKX 120520
TAFSWF
TAF
KSWF 120520Z 1206/1312 29013G20KT P6SM FEW050
     FM120700 27007KT P6SM SKC
     FM121800 24010KT P6SM SCT040 BKN100
     FM122200 24005KT P6SM SCT040 BKN080
     FM130800 28010KT P6SM SCT020 BKN040
     FM131000 30015G25KT P6SM SCT040 BKN070
      AMD NOT SKED=

USA.gov is the U.S. government's official web portal to all federal, state and local government web resources and services.